Find Starlink 11148

NORAD ID: 60044 Int'l Des: 2024-112 Owner: SPXS Country: US Constellation: starlink operational
又名: STARLINK-11148 [DTC] celestrak
LEOCIRCULAR

当前视图

正在加载3D地球...

About Starlink 11148

Starlink 11148 (NORAD 60044) is a starlink constellation satellite (v2 mini d2c) launched Jun 8, 2024 by SPXS of US. It operates in LEO, CIRCULAR orbit with a mass of 960.00 kg.

即将过境

Passes for default location (London). Set your location on the main map for personalized predictions.

高度历史

Loading altitude history...

两行轨道根数

1 60044U 24112G 26235.20086262 .00000751 00000-0 11068-4 0 9991
2 60044 53.1604 165.4149 0001364 80.0749 280.0423 15.69696076127135
Epoch: Aug 23, 2026 • Age: 26 hours

当前状态

高度 363.1 km
远地点 / 近地点 N/A
速度 7.69 km/s
星下点 -11.91°S, 77.46°E
发射日期 Jun 8, 2024
运行时间 2.2 years
类型 internet

技术详情

分类 Payload
质量 960.00 kg
干质量 910.00 kg
总质量 960.00 kg
长度 0.30 m
直径 4.10 m
跨度 29.00 m
形状 Box + pan
制造商 SPXS
平台类型 Starlink V2MD
阶段状态 In Orbit
所有者/国家 SPXS/US

Most Searched